Hourly Data Report for October 31, 2015

All times are specified in Local Standard Time (LST). Add 1 hour to adjust for Daylight Saving Time where and when it is observed.

PANGNIRTUNG
NUNAVUT

66°08'36.300" N
65°42'40.500" W
22.60 m
2403049
71826
WXP

Download Data

Hourly Data (October 2015)
Hourly Data Report for October 31, 2015
Temp Definition
°C
Dew Point Temp Definition
°C
Rel Hum Definition
%
Wind Dir Definition
10's deg

Wind Spd Definition
km/h
Visibility Definition
km
Stn Press Definition
kPa
Hmdx Definition


Wind Chill Definition


Weather Definition


TIME
00:00 -7.8 -15.2 55 0 1   99.45   -8 LegendNANA
01:00 -8.1 -13.8 64 13 3   99.46   -10 LegendNANA
02:00 -7.9 -13.5 64 26 2   99.48   -9 LegendNANA
03:00 -7.9 -13.6 64 20 5   99.51   -11 LegendNANA
04:00 -8.4 -13.2 68 23 9   99.54   -13 LegendNANA
05:00 -9.0 -12.7 74 23 11   99.57   -14 LegendNANA
06:00 -9.7 -12.6 79 24 17   99.62   -17 LegendNANA
07:00 -9.6 -13.1 76 23 8   99.66   -14 LegendNANA
08:00 -9.6 -12.9 77 21 6   99.69   -13 LegendNANA
09:00 -9.5 -12.4 79 23 11   99.71   -15 LegendNANA
10:00 -9.7 -12.5 80 24 11   99.76   -15 LegendNANA
11:00 -9.9 -12.7 80 22 7   99.80   -14 LegendNANA
12:00 -10.1 -12.7 81 21 6   99.85   -14 LegendNANA
13:00 -10.5 -12.7 83 24 12   99.90   -17 LegendNANA
14:00 -10.7 -13.1 83 24 5   99.97   -14 LegendNANA
15:00 -11.2 -13.5 83 25 5   100.05   -14 LegendNANA
16:00 -11.5 -13.8 83 13 9   100.11   -17 LegendNANA
17:00 -11.6 -14.0 83 20 5   100.17   -15 LegendNANA
18:00 -12.0 -14.1 84 24 12   100.22   -18 LegendNANA
19:00 -12.1 -14.3 84 21 5   100.27   -15 LegendNANA
20:00 -12.6 -14.6 85 34 2   100.31   -14 LegendNANA
21:00 -13.0 -14.5 89 4 4   100.33   -16 LegendNANA
22:00 -13.1 -14.7 88 26 2   100.35   -14 LegendNANA
23:00 -13.2 -15.0 87 11 6   100.40   -17 LegendNANA

Notes on Data Quality.

Legend

  • E = Estimated
  • M = Missing
  • NA = Not Available
  • ‡ = Partner data that is not subject to review by the National Climate Archives
Date modified: